Regional Weather Roundup
Issued by NWS

Home | Current Version | Previous Version | Text Only | Print | Product List | Glossary Off
Versions: 1 2 3 4 5 6 7 8 9 10 11 12 13 14 15 16 17 18 19 20 21 22 23 24 25 26 27

000
ASUS45 KCYS 231310
RWRWY

WYOMING REGIONAL WEATHER ROUNDUP
NATIONAL WEATHER SERVICE CHEYENNE WY
600 AM MST TUE JAN 23 2018

NOTE:  "FAIR" INDICATES FEW OR NO CLOUDS BELOW 12,000 FEET
WITH NO SIGNIFICANT WEATHER AND/OR OBSTRUCTIONS TO VISIBILITY.

WYZ001-231400-
YELLOWSTONE NATIONAL PARK

CITY           SKY/WX    TMP DP  RH WIND       PRES   REMARKS
LK YELLOWSTONE   N/A     -7 -11  83 NW3       30.19R
W YELLOWSTONE  NOT AVBL

$$
WYZ002>013-054>058-071-098>099-231400-
NORTHERN WYOMING

CITY           SKY/WX    TMP DP  RH WIND       PRES   REMARKS
JACKSON        FLURRIES  14  12  92 NE3       30.23S
CODY           FAIR      23   9  55 N3        30.17R
GREYBULL       FAIR       2  -1  88 W3        30.22R
WORLAND        FAIR       2   0  91 S3        30.20R
SHERIDAN       MOCLDY    21  11  65 N3        30.14R
BUFFALO        FAIR      27   7  42 NW6       30.13R WCI  20
GILLETTE       MOCLDY    23  16  74 W15       30.12R WCI  10
HULETT         FAIR      23  18  80 SW6       30.12R WCI  16
NEWCASTLE      FAIR      19  14  79 N7        30.14R WCI  10

$$
WYZ014>020-022>026-101>103-231400-
CENTRAL WYOMING

CITY           SKY/WX    TMP DP  RH WIND       PRES   REMARKS
BIG PINEY      FAIR      -2  -4  91 CALM      30.22R
PINEDALE       FAIR       0  -4  85 W7        30.22R WCI -13
DUBOIS         FAIR      16   9  73 NW12      30.13R WCI   3
LANDER         FAIR       7   2  80 CALM      30.16R
RIVERTON       FAIR       1  -4  79 SW6       30.17S WCI -10
CASPER         MOCLDY    18  11  74 SW13      30.16R WCI   5
DOUGLAS        FAIR       7   2  80 CALM      30.16R

$$
WYZ021-027>030-104>119-231400-
SOUTHERN WYOMING

CITY           SKY/WX    TMP DP  RH WIND       PRES   REMARKS
EVANSTON       CLOUDY    20  17  88 S7        30.26R WCI  11
FORT BRIDGER   FAIR      15  15  98 W9        30.28S WCI   3
ROCK SPRINGS   FAIR      15   9  76 W15       30.23R WCI   0
DIXON            N/A     15  10  82 W3        30.28S
RAWLINS        FAIR      15  10  80 W15       30.19R WCI   0
SARATOGA       PTSUNNY   19  12  73 W20G29    30.19R WCI   4
LARAMIE        MOCLDY    17  11  77 W16       30.12R WCI   2
CHEYENNE       CLOUDY    23  13  65 NW7       30.13R WCI  15
TORRINGTON     FAIR      21  14  74 W8        30.15R WCI  11

$$




USA.gov is the U.S. government's official web portal to all federal, state and local government web resources and services.